Location: Newark
(33.6333°S, 78.8500°W)
Time: 05:53:44
(UTC+00:00)

Tiros 1 despin weight - Pass Details

Date: 23 September 2019
Orbit: 594 x 643 km, 48.2° (Epoch: 17 October)

Event Time Altitude Azimuth Distance (km) Brightness Sun altitude
Rises 05:47:23 0° 261° (W) 2,889 - -55.1°
Reaches altitude 10° 05:50:18 10° 243° (WSW) 1,998 - -55.0°
Maximum altitude 05:53:33 19° 198° (SSW) 1,523 - -54.7°
Drops below altitude 10° 05:56:50 10° 153° (SSE) 2,026 - -54.5°
Sets 05:59:49 0° 134° (SE) 2,947 - -54.3°
